Location: Dötzum
(52.0808°N, 9.8063°E)
Time: 05:16:08
(UTC+00:00)

Cosmos 1125 Rocket - Pass Details

Date: 27 May 2022
Orbit: 757 x 780 km, 74.0° (Epoch: 24 June)

Event Time Altitude Azimuth Distance (km) Brightness Sun altitude
Exits shadow 00:43:32 19° 226° (SW) 1,763 4.8 -14.3°
Maximum altitude 00:47:12 57° 300° (WNW) 896 3.9 -14.1°
Drops below altitude 10° 00:52:21 10° 19° (NNE) 2,303 7.4 -13.8°
Sets 00:54:47 0° 24° (NNE) 3,236 8.8 -13.7°
